World > North America > United States > Texas > Rice

Hourly Rice, TX Regional Weather

Feedback E-mail the Weather

Quick WX

Rice, TX Weather Maps

°F °C°F °C
Rice Weather Map
UTC Time: 8/12/2022, 08:37
Your Time:

Rice, TX Regional Weather

Expires:202208120900;;957395
ASUS44 KFWD 120815
RWRTX 
NORTH TEXAS HOURLY WEATHER ROUNDUP
NATIONAL WEATHER SERVICE FORT WORTH TX
300 AM CDT FRI AUG 12 2022

NOTE: "FAIR" INDICATES FEW OR NO CLOUDS BELOW 12,000 FEET WITH NO
SIGNIFICANT WEATHER AND/OR OBSTRUCTIONS TO VISIBILITY.


TXZ143>147-156>162-174-175-120900-
CENTRAL TEXAS
  
CITY           SKY/WX    TMP DP  RH WIND       PRES   REMARKS
WACO           FAIR      81  70  69 SE5       30.00S                  
WACO-MCGREGOR  FAIR      81  69  67 SE7       30.00F                  
HILLSBORO      FAIR      81  70  70 E7        30.01F                  
CORSICANA      FAIR      80  71  74 CALM      30.02F                  
MEXIA          FAIR      77  72  82 SW5       30.00F                  
HEARNE         FAIR      80  72  75 CALM      30.00S                  
CAMERON        FAIR      80  70  73 SE3       29.99S                  
TEMPLE         FAIR      79  69  71 SE3       30.01S                  
KILLEEN        FAIR      77  66  69 SE5       29.98S                  
KILLEEN-SKYLRK FAIR      80  69  69 SE8       30.01S                  
FORT HOOD      FAIR      80  68  67 SE8       30.00S                  
GATESVILLE     FAIR      77  66  69 MISG      30.03R                  
HAMILTON       FAIR      79  65  63 E5        30.04S                  
LAMPASAS       FAIR      76  63  63 SE8       29.99R                  
$$


SKY/WX - Weather  TMP - Temperature  DP - Dew Point  RH - Humidity
WIND - Wind Direction/Speed PRES - Barometric Pressure VSB - Visibility
WCI - Wind Chill Index E13G22 Wind - East Wind 13 mph/Gusts of 22 mph

Trending Headlines

Rice Radar Loop



Rice Quick Facts


National Two Day Weather Forecast


E-mail the Rice Weather Forecast

Voice your opinion or tell us about page issues...